Temp
-6 -6 -6 -6 -6 -6 -6 -6 -7 -7 -7 -7 -7 -7 -7 -6 -7 -6 -7 -7 -7 -7 -7 -7 -8 -8 -8 -8 -8 -8 -8 -8 -8 -8 -8 -9 -9 -9 -9 -9 -8 -8
-7 -6 -6 -6 -7 -6 -6 -7 -7 -7 -7 -7 -7 -7 -6 -6 -6 -6 -7 -7 -7 -8 -8 -8 -8 -8 -8 -8 -9 -9 -8 -8 -8 -8 -8 -9 -9 -9 -9 -9 -9 -9
-7 -7 -6 -7 -7 -7 -7 -7 -7 -7 -7 -7 -7 -6 -6 -6 -6 -6 -7 -7 -7 -8 -8 -8 -8 -8 -8 -9 -9 -9 -9 -9 -8 -9 -9 -9 -9 -9 -9 -9 -10 -10
-7 -7 -7 -7 -7 -7 -7 -7 -7 -7 -7 -7 -7 -6 -6 -6 -7 -7 -7 -7 -7 -8 -8 -8 -9 -8 -8 -9 -9 -9 -9 -9 -9 -9 -9 -9 -9 -9 -9 -9 -10 -10
-7 -7 -7 -7 -7 -7 -7 -7 -7 -7 -7 -7 -7 -7 -7 -7 -7 -7 -8 -8 -8 -8 -8 -8 -9 -9 -9 -9 -9 -9 -9 -9 -9 -9 -9 -9 -9 -9 -9 -9 -10 -10
-7 -7 -7 -7 -7 -7 -7 -7 -7 -7 -7 -7 -7 -7 -7 -7 -7 -8 -8 -8 -8 -8 -8 -8 -8 -9 -8 -8 -9 -9 -9 -9 -9 -9 -9 -9 -9 -9 -9 -9 -10 -10
-7 -7 -7 -7 -7 -7 -7 -7 -7 -7 -7 -7 -7 -7 -7 -7 -7 -8 -8 -8 -8 -8 -9 -8 -8 -8 -8 -8 -8 -9 -9 -8 -9 -9 -9 -9 -8 -8 -8 -9 -9 -10
-7 -7 -7 -7 -7 -7 -7 -7 -7 -7 -7 -7 -7 -7 -7 -7 -7 -7 -8 -8 -8 -9 -8 -8 -8 -8 -8 -8 -8 -8 -8 -8 -8 -9 -9 -8 -8 -8 -8 -9 -9 -10
-7 -7 -7 -7 -7 -7 -7 -7 -7 -7 -7 -7 -7 -7 -7 -8 -7 -7 -8 -8 -8 -8 -8 -8 -8 -8 -7 -7 -7 -8 -8 -8 -8 -8 -9 -8 -8 -8 -9 -9 -9 -9
-7 -7 -7 -7 -7 -7 -7 -7 -7 -7 -7 -7 -7 -7 -7 -8 -8 -8 -8 -8 -8 -8 -8 -8 -8 -8 -8 -7 -7 -8 -8 -8 -8 -8 -8 -9 -9 -9 -9 -9 -9 -9
-7 -7 -7 -7 -7 -7 -7 -7 -7 -7 -7 -8 -8 -7 -8 -8 -8 -8 -8 -8 -8 -8 -8 -8 -8 -8 -8 -8 -7 -7 -8 -8 -8 -8 -8 -9 -9 -9 -9 -9 -10 -10
-7 -7 -7 -7 -7 -7 -7 -8 -8 -8 -8 -8 -8 -8 -8 -8 -8 -8 -8 -8 -8 -7 -8 -8 -8 -8 -8 -8 -7 -8 -7 -7 -8 -8 -8 -8 -9 -9 -9 -9 -9 -10
-7 -7 -7 -7 -7 -7 -8 -8 -8 -8 -8 -8 -8 -8 -8 -8 -8 -8 -8 -8 -8 -7 -7 -8 -8 -8 -8 -8 -8 -8 -7 -7 -8 -8 -8 -8 -9 -9 -9 -9 -9 -10
-7 -7 -7 -7 -7 -8 -8 -8 -8 -8 -8 -8 -8 -8 -8 -8 -8 -8 -9 -9 -8 -8 -8 -8 -8 -8 -8 -8 -8 -8 -7 -8 -8 -8 -8 -8 -9 -9 -9 -9 -10 -10
-7 -7 -7 -7 -8 -8 -8 -8 -8 -8 -8 -8 -8 -8 -8 -8 -8 -8 -9 -9 -9 -8 -8 -8 -8 -8 -8 -7 -8 -8 -8 -8 -8 -8 -8 -9 -9 -9 -9 -10 -10 -10
-7 -7 -8 -8 -8 -8 -8 -8 -8 -8 -9 -8 -8 -8 -8 -8 -8 -8 -9 -9 -9 -9 -9 -8 -8 -8 -8 -8 -8 -8 -8 -8 -9 -8 -8 -9 -9 -9 -10 -10 -9 -9
-7 -8 -8 -8 -8 -8 -8 -8 -8 -9 -9 -9 -8 -9 -8 -8 -8 -8 -9 -9 -9 -9 -9 -9 -8 -8 -8 -8 -8 -8 -8 -9 -9 -9 -9 -9 -9 -9 -9 -9 -9 -9
-8 -8 -8 -8 -8 -8 -8 -8 -8 -9 -9 -9 -9 -9 -9 -9 -9 -9 -9 -9 -9 -9 -9 -9 -8 -8 -8 -8 -8 -8 -8 -8 -9 -9 -9 -9 -9 -10 -9 -9 -9 -9
-8 -8 -8 -8 -8 -8 -8 -8 -8 -9 -9 -9 -9 -9 -9 -9 -9 -9 -9 -9 -9 -9 -9 -9 -8 -8 -8 -8 -8 -8 -8 -8 -9 -9 -9 -9 -9 -9 -9 -9 -9 -9
-8 -8 -8 -8 -8 -8 -8 -8 -8 -9 -9 -9 -9 -9 -9 -9 -9 -9 -9 -9 -9 -9 -9 -9 -9 -9 -9 -8 -8 -8 -8 -8 -9 -9 -9 -10 -10 -10 -9 -9 -9 -10
-8 -8 -8 -8 -8 -8 -8 -8 -9 -9 -9 -9 -9 -9 -9 -9 -9 -9 -9 -9 -9 -9 -9 -9 -9 -9 -9 -9 -8 -8 -8 -8 -9 -9 -10 -10 -10 -9 -9 -9 -10 -10
-8 -8 -8 -8 -8 -8 -8 -9 -9 -9 -9 -9 -9 -9 -9 -9 -9 -9 -9 -9 -9 -9 -9 -9 -9 -9 -9 -9 -8 -8 -8 -8 -9 -9 -10 -10 -9 -9 -9 -9 -10 -10
-8 -8 -8 -8 -8 -8 -9 -9 -9 -9 -9 -9 -9 -9 -9 -9 -9 -9 -9 -9 -9 -9 -9 -9 -9 -9 -9 -9 -9 -8 -8 -8 -9 -9 -9 -9 -9 -9 -9 -10 -10 -10
-8 -8 -8 -8 -8 -9 -9 -9 -9 -9 -9 -9 -9 -9 -9 -9 -9 -9 -9 -9 -9 -9 -9 -9 -9 -9 -9 -9 -8 -8 -8 -8 -9 -9 -9 -9 -9 -9 -9 -10 -10 -10
-8 -8 -8 -8 -9 -9 -9 -9 -9 -9 -9 -9 -9 -9 -9 -9 -9 -9 -9 -9 -9 -9 -9 -9 -9 -9 -9 -9 -9 -9 -9 -9 -9 -9 -9 -9 -9 -9 -10 -10 -10 -11
-8 -8 -9 -9 -9 -9 -9 -9 -9 -9 -9 -9 -9 -9 -9 -9 -9 -9 -9 -9 -9 -9 -9 -9 -9 -9 -9 -9 -9 -9 -9 -10 -10 -10 -10 -10 -10 -10 -10 -10 -11 -11
Height
5910 5910 5910 5910 5910 5910 5910 5910 5909 5909 5908 5908 5908 5907 5907 5906 5905 5903 5902 5901 5900 5899 5898 5896 5895 5893 5892 5891 5889 5888 5886 5885 5884 5883 5882 5881 5880 5880 5879 5878 5878 5877
5908 5908 5908 5908 5908 5908 5908 5908 5908 5907 5906 5906 5906 5905 5905 5904 5902 5901 5900 5899 5897 5896 5895 5894 5893 5891 5889 5887 5886 5885 5883 5882 5880 5879 5878 5877 5876 5875 5875 5875 5874 5874
5906 5906 5906 5906 5906 5906 5906 5906 5906 5905 5905 5904 5904 5904 5903 5902 5901 5900 5898 5897 5896 5895 5894 5893 5891 5889 5887 5885 5883 5882 5880 5878 5877 5875 5874 5872 5871 5870 5870 5871 5870 5870
5903 5904 5904 5904 5904 5904 5905 5905 5904 5903 5903 5903 5902 5902 5901 5901 5900 5898 5896 5895 5894 5893 5892 5890 5888 5886 5884 5882 5880 5879 5877 5875 5874 5872 5870 5868 5867 5866 5866 5866 5866 5866
5901 5901 5902 5902 5902 5903 5903 5903 5902 5902 5901 5901 5901 5900 5900 5899 5897 5896 5894 5893 5892 5891 5889 5888 5885 5883 5881 5879 5877 5875 5874 5872 5871 5869 5867 5865 5864 5863 5863 5863 5862 5862
5899 5899 5900 5900 5900 5901 5901 5901 5900 5900 5900 5899 5899 5898 5897 5896 5895 5893 5891 5890 5889 5888 5887 5885 5883 5880 5878 5876 5874 5872 5870 5868 5867 5866 5864 5863 5861 5860 5860 5860 5860 5859
5897 5897 5898 5898 5899 5899 5899 5898 5898 5898 5898 5897 5897 5896 5895 5894 5892 5891 5889 5887 5886 5885 5884 5882 5881 5878 5876 5874 5872 5869 5867 5865 5864 5863 5861 5860 5859 5858 5857 5857 5857 5856
5895 5896 5896 5896 5897 5897 5896 5895 5896 5896 5896 5895 5894 5893 5892 5891 5890 5889 5887 5884 5883 5882 5880 5879 5878 5875 5873 5872 5870 5867 5865 5863 5862 5860 5859 5857 5856 5856 5855 5855 5855 5854
5893 5894 5894 5894 5895 5894 5894 5893 5893 5894 5894 5893 5892 5891 5890 5889 5888 5886 5884 5882 5880 5879 5878 5876 5874 5872 5870 5869 5867 5865 5863 5860 5859 5858 5856 5855 5854 5854 5853 5853 5852 5850
5891 5892 5892 5892 5892 5892 5891 5891 5892 5893 5892 5891 5890 5890 5888 5886 5885 5884 5881 5879 5878 5876 5874 5873 5871 5868 5865 5864 5864 5862 5860 5857 5855 5854 5853 5852 5851 5851 5850 5850 5849 5847
5889 5890 5890 5890 5890 5890 5889 5889 5890 5892 5891 5889 5887 5886 5885 5884 5882 5881 5879 5877 5875 5873 5871 5870 5868 5866 5862 5861 5862 5860 5857 5854 5852 5850 5849 5848 5848 5847 5847 5846 5845 5844
5887 5888 5887 5887 5887 5887 5887 5887 5888 5889 5889 5886 5884 5883 5882 5881 5879 5878 5876 5874 5872 5870 5868 5867 5865 5864 5861 5859 5859 5857 5854 5851 5849 5847 5846 5845 5844 5844 5843 5842 5841 5840
5885 5885 5885 5885 5885 5885 5885 5885 5886 5886 5885 5883 5881 5880 5878 5877 5876 5875 5873 5870 5868 5866 5864 5863 5861 5860 5858 5856 5855 5853 5850 5848 5846 5844 5843 5842 5842 5841 5840 5839 5837 5836
5883 5883 5883 5883 5883 5883 5882 5882 5883 5883 5881 5880 5878 5876 5874 5873 5872 5870 5868 5866 5864 5862 5860 5859 5857 5856 5854 5853 5851 5849 5846 5844 5843 5841 5840 5840 5838 5838 5836 5835 5833 5832
5880 5880 5880 5880 5880 5880 5880 5879 5880 5879 5877 5876 5875 5873 5870 5869 5867 5866 5864 5861 5859 5858 5856 5854 5853 5852 5851 5849 5847 5845 5842 5841 5840 5838 5837 5837 5835 5834 5833 5831 5830 5828
5878 5877 5877 5877 5877 5877 5876 5876 5876 5875 5874 5872 5871 5869 5866 5864 5863 5861 5859 5857 5855 5854 5853 5851 5849 5849 5847 5845 5843 5841 5839 5838 5836 5834 5834 5834 5832 5831 5830 5828 5826 5825
5875 5874 5874 5874 5874 5873 5873 5873 5872 5872 5870 5868 5867 5865 5863 5860 5858 5857 5855 5852 5851 5850 5849 5847 5846 5845 5843 5841 5839 5837 5836 5834 5832 5831 5830 5830 5828 5827 5826 5824 5823 5821
5871 5871 5871 5871 5870 5870 5870 5869 5869 5867 5866 5864 5863 5861 5859 5856 5854 5852 5850 5848 5847 5846 5845 5843 5842 5841 5839 5837 5835 5833 5832 5830 5828 5827 5826 5825 5824 5823 5822 5820 5819 5818
5868 5868 5868 5867 5867 5866 5866 5865 5865 5863 5861 5860 5858 5857 5854 5852 5849 5847 5845 5843 5842 5842 5840 5838 5838 5837 5836 5833 5830 5829 5827 5825 5824 5823 5823 5822 5820 5819 5817 5816 5815 5814
5865 5865 5865 5864 5863 5863 5862 5861 5860 5859 5858 5856 5854 5852 5850 5847 5845 5842 5840 5838 5837 5837 5835 5834 5833 5833 5831 5828 5826 5824 5822 5820 5819 5819 5819 5818 5817 5815 5814 5813 5811 5810
5862 5861 5861 5860 5859 5858 5858 5857 5856 5855 5853 5851 5849 5847 5846 5843 5841 5838 5836 5834 5833 5832 5831 5829 5828 5827 5825 5823 5821 5819 5817 5816 5815 5815 5815 5814 5813 5811 5811 5809 5807 5806
5858 5858 5857 5856 5855 5854 5854 5852 5851 5850 5848 5847 5845 5843 5841 5839 5837 5835 5833 5831 5829 5828 5827 5825 5823 5823 5821 5819 5817 5815 5813 5812 5812 5811 5811 5810 5809 5808 5807 5805 5803 5801
5854 5854 5853 5852 5851 5850 5849 5848 5846 5845 5844 5842 5840 5838 5836 5835 5833 5831 5829 5827 5825 5824 5823 5821 5820 5818 5817 5815 5813 5811 5809 5809 5808 5808 5807 5806 5805 5804 5803 5801 5798 5797
5850 5850 5849 5848 5848 5846 5845 5843 5842 5841 5839 5837 5835 5833 5831 5830 5829 5827 5824 5822 5821 5820 5818 5817 5815 5814 5813 5811 5809 5807 5806 5806 5805 5804 5804 5802 5801 5800 5798 5796 5793 5793
5846 5846 5845 5844 5843 5842 5840 5839 5837 5836 5835 5832 5830 5829 5827 5825 5824 5822 5820 5818 5816 5815 5814 5812 5811 5809 5808 5807 5805 5803 5803 5803 5802 5801 5800 5798 5796 5795 5793 5791 5790 5788
5841 5841 5841 5840 5839 5837 5835 5834 5833 5831 5830 5827 5825 5824 5822 5820 5819 5817 5815 5813 5811 5810 5808 5807 5805 5804 5803 5802 5801 5799 5799 5799 5798 5797 5794 5793 5791 5789 5787 5786 5785 5783
Wind_Speed
16 16 16 16 15 15 14 13 13 14 14 15 16 17 18 19 20 21 22 22 22 23 24 25 26 28 29 30 31 31 30 30 30 29 28 29 30 30 28 27 27 28
17 17 17 16 16 16 15 14 14 15 16 17 18 19 20 21 22 24 24 23 22 23 25 26 27 29 30 32 32 32 32 32 31 30 29 29 31 32 30 28 28 28
19 18 17 17 16 16 15 14 14 15 17 18 19 20 21 22 22 24 24 23 23 24 26 27 29 31 31 32 33 33 33 32 30 29 29 28 28 29 29 29 28 28
20 19 18 17 17 16 15 14 15 16 17 19 19 20 20 21 22 23 23 23 23 24 27 28 30 32 32 31 33 35 34 32 30 28 28 26 25 25 26 28 27 27
20 18 18 17 17 16 16 15 16 17 18 19 20 21 21 22 23 23 23 22 22 25 28 29 30 33 33 32 34 36 34 32 30 27 26 26 26 25 26 27 27 27
18 17 17 17 16 16 16 17 17 18 19 21 22 22 22 23 23 24 24 23 24 26 28 28 30 34 35 33 34 35 33 30 28 26 25 26 27 27 27 27 27 27
17 16 17 16 16 17 17 18 19 19 21 23 23 23 23 23 23 24 26 27 26 27 28 29 30 33 34 32 31 34 33 29 27 26 26 26 27 28 28 28 27 26
16 16 16 16 16 17 18 19 20 20 22 23 23 24 24 25 25 25 27 28 26 27 29 30 31 32 32 28 27 31 32 29 29 29 29 28 28 27 27 28 28 28
15 16 17 17 17 17 19 21 22 21 22 23 23 24 25 27 26 25 26 28 28 30 31 32 32 33 32 27 24 28 32 32 32 32 33 32 31 28 26 27 30 30
15 16 17 17 18 19 20 22 22 20 20 22 24 25 26 27 26 25 26 29 32 34 34 33 32 31 30 28 26 29 34 35 36 35 35 35 33 29 27 28 30 30
16 17 18 18 19 20 21 22 21 18 18 22 25 26 26 27 25 25 26 29 32 34 33 31 27 24 21 19 24 30 35 37 39 38 37 36 34 31 30 31 30 30
17 17 17 18 18 18 19 20 20 17 17 22 26 28 28 28 26 26 26 28 30 31 31 30 28 24 19 20 24 30 34 37 39 40 38 37 35 33 32 32 32 32
15 15 16 16 16 17 18 19 19 19 20 23 27 30 31 31 30 28 27 28 28 29 31 30 28 27 28 31 32 33 34 36 38 39 38 37 36 34 33 33 33 33
15 16 16 17 17 18 19 20 20 21 23 26 28 31 32 33 32 31 30 30 29 29 30 28 25 25 27 32 33 33 34 35 37 38 36 35 35 33 33 33 33 33
16 16 16 17 17 18 19 21 21 22 25 27 29 32 34 34 34 33 32 32 31 29 29 29 27 26 26 28 30 32 33 33 36 37 35 34 34 33 33 34 34 34
16 16 16 17 18 19 20 21 22 24 26 29 31 33 35 36 36 35 34 34 33 31 30 31 31 29 27 28 30 32 33 33 36 38 35 34 35 34 34 35 36 36
17 17 18 19 20 22 23 24 25 27 29 31 33 35 38 38 38 37 35 35 34 32 30 32 33 31 30 31 32 33 33 34 37 38 36 35 35 35 35 36 37 36
18 19 19 21 23 24 26 27 28 29 32 34 36 38 41 42 41 39 37 35 34 32 31 32 32 30 31 33 32 33 34 36 38 38 36 35 35 35 36 37 36 36
20 21 22 24 26 27 29 30 30 31 34 36 39 41 44 45 44 41 37 35 33 31 31 32 30 29 31 33 33 33 35 37 38 37 35 35 35 36 37 37 36 35
23 24 25 26 28 30 31 33 33 34 36 39 42 44 46 46 44 40 37 35 32 31 31 32 31 30 31 32 32 34 37 38 38 36 35 35 35 36 36 36 35 33
27 28 28 30 31 33 34 36 36 37 39 42 44 46 48 46 41 37 34 33 32 31 31 32 32 31 31 32 33 36 38 38 37 36 35 35 36 36 36 36 34 33
29 30 31 33 35 36 37 38 39 40 42 43 46 49 49 44 38 34 32 31 31 31 31 32 32 30 30 32 35 36 37 36 34 34 34 35 36 36 35 35 34 34
31 32 33 35 37 39 40 41 43 43 44 45 48 51 49 42 36 33 31 29 30 31 30 31 31 30 30 32 34 34 33 31 31 32 34 35 37 37 36 35 35 37
33 34 35 37 40 41 43 46 47 46 46 48 50 52 48 41 37 34 31 29 30 31 31 30 30 30 30 30 31 30 28 27 28 31 34 36 38 38 37 35 36 39
35 36 38 39 41 43 46 49 49 47 48 51 53 51 46 40 37 35 32 31 31 31 32 32 31 31 30 27 27 26 26 27 29 32 35 37 38 38 37 36 38 40
39 39 40 41 43 46 48 49 48 47 50 53 53 49 44 39 37 36 35 34 33 33 33 33 32 31 29 26 25 27 29 29 30 33 36 38 38 38 39 39 39 39
Wind_Direction
261 264 268 268 266 263 265 274 285 293 298 303 308 311 313 315 315 314 314 315 315 315 315 317 317 318 317 317 315 312 307 304 301 299 296 291 287 286 285 284 284 284
260 264 266 266 262 262 266 277 286 291 297 302 306 310 313 315 315 314 313 313 314 315 316 318 317 315 314 315 314 312 309 306 304 305 304 298 290 283 280 281 280 280
259 262 263 262 261 262 269 279 286 291 295 298 303 307 311 313 313 312 309 307 308 311 315 317 316 313 312 313 313 311 309 306 305 307 309 305 296 285 278 279 278 277
255 258 260 259 259 262 270 279 285 289 293 297 302 307 311 313 313 312 309 307 308 311 313 313 312 311 311 311 310 308 307 303 300 304 307 304 297 289 283 283 284 279
252 255 256 256 258 263 271 278 282 287 292 297 302 307 314 318 317 314 311 310 312 315 316 314 311 311 311 312 310 309 307 300 296 301 303 299 295 291 288 288 288 284
250 250 252 255 260 267 274 278 281 288 293 298 302 307 315 320 318 313 310 311 315 316 315 312 311 311 310 311 310 311 310 301 294 298 298 292 291 291 291 292 291 287
246 248 253 259 265 272 277 281 285 292 296 300 305 310 317 320 317 313 310 311 314 312 309 310 312 311 308 309 312 314 314 303 290 291 291 288 288 291 294 297 295 290
248 253 259 263 269 274 279 283 288 293 297 302 309 315 320 319 317 313 308 308 310 308 307 309 313 311 304 302 309 312 310 302 289 285 287 288 289 292 297 301 298 292
255 260 263 266 271 275 279 283 286 292 299 305 312 319 323 321 317 312 306 305 309 309 309 309 309 308 296 287 299 309 305 299 292 287 287 289 290 291 297 302 300 296
259 262 265 269 272 274 278 281 285 294 304 311 316 322 326 323 317 310 306 308 309 308 310 310 308 308 298 281 285 301 301 295 292 289 290 292 291 290 292 299 301 297
260 263 267 270 273 276 279 282 287 300 312 317 321 324 327 325 317 308 306 307 307 306 307 308 305 308 312 296 289 294 293 290 289 289 290 293 294 291 290 295 299 297
262 266 269 273 278 281 283 286 293 303 311 315 319 322 325 325 320 313 307 304 304 304 304 304 297 291 296 303 305 299 290 287 288 287 288 291 294 294 292 294 298 297
264 269 274 279 284 287 288 290 295 302 306 309 315 319 320 321 320 316 309 303 303 303 304 305 300 289 281 285 297 300 291 287 286 286 287 289 291 294 294 294 296 295
268 275 281 284 287 289 290 293 297 302 305 307 312 316 316 317 317 315 310 304 302 302 303 304 303 299 288 282 287 290 288 286 284 284 286 288 289 292 293 292 293 291
274 280 286 289 292 293 295 298 302 306 307 308 311 312 312 313 314 313 309 305 301 300 300 298 296 299 295 286 283 284 286 287 283 282 284 286 288 290 290 290 289 288
279 288 294 297 298 299 300 303 306 308 307 307 309 310 309 309 311 311 307 301 298 297 296 293 292 295 294 289 285 285 287 286 282 281 283 285 286 286 286 287 286 286
284 292 298 301 303 303 303 305 307 308 308 308 310 309 308 308 308 307 304 298 295 295 294 292 292 294 293 290 288 288 288 286 283 283 283 283 283 284 285 286 286 286
286 293 298 302 305 305 305 306 307 309 309 309 310 309 309 309 307 304 301 296 294 294 294 291 292 292 290 288 288 289 288 286 283 283 284 284 284 284 285 286 285 284
287 293 297 300 303 304 304 305 305 306 306 307 309 310 311 309 306 303 299 295 293 294 292 290 290 289 285 285 287 289 287 285 285 285 285 284 283 283 285 285 283 282
287 291 295 298 300 302 304 304 303 302 303 305 309 311 311 309 305 301 297 293 293 293 291 290 290 288 286 287 289 288 285 285 285 285 284 282 282 283 285 284 280 281
288 290 293 296 298 300 302 303 301 300 300 304 309 311 310 308 303 298 294 293 293 293 292 290 289 288 288 289 288 286 285 285 285 284 282 282 282 282 281 279 277 280
290 291 293 295 296 298 299 301 301 300 300 303 308 310 309 306 301 294 291 293 293 292 291 288 287 287 288 288 287 286 285 284 283 283 282 281 282 281 278 276 276 280
290 290 291 293 295 296 297 299 300 300 302 303 306 308 307 304 298 292 291 293 293 291 289 287 286 289 289 288 287 285 282 280 279 279 279 279 280 278 276 276 277 280
288 288 289 291 294 295 296 298 299 300 302 303 305 306 304 300 296 292 292 294 294 292 291 289 289 290 291 289 284 280 279 277 276 276 277 277 277 275 275 276 278 281
285 286 287 289 291 293 295 298 299 300 301 302 303 303 300 297 296 293 292 294 294 293 292 290 289 290 291 286 279 276 279 280 279 278 276 275 275 275 276 278 280 282
282 283 283 285 288 291 295 298 299 299 299 300 302 300 296 294 294 292 292 294 295 294 292 290 289 290 290 283 276 279 283 284 282 279 276 275 275 275 275 278 281 284